Weather in Lindi

Tanzania     9°59′44″S   39°42′25″E
temp.,
°C
wind,
m/s
gust,
m/s
humid.,
%
clouds,
%
prec.,
mm/h
press.,
hPa
HPBL,
m
14 august, sun
sun1400:00+20se22870 0.0 1017116
03:00+18ssw229424 0.0 101654
06:00+18sw229647 0.0 101744
09:00+25e13619 0.0 1018758
12:00+28ene33515 0.0 10161284
15:00+27ene555172 0.0 1013952
18:00+24ne477234 0.0 1014796
21:00+23ne2681100 0.1 1016391
15 august, mon
mon1500:00+22ne2487100 0.2 1016204
03:00+21ene248745 0.3 1014195
06:00+22ene2684100 0.1 1015282
09:00+24ene456451 0.2 10171234
12:00+27ene555540 0.1 10171447
15:00+25ene446392 0.2 1015945
18:00+24ene366833 0.1 1014758
21:00+22ene267912 0.1 1017275
16 august, tue
tue1600:00+21e238631 0.0 1017158
03:00+20se129159 0.1 1015114
06:00+20se129142 0.0 1016111
09:00+25e3463100 0.1 10181125
12:00+28ene444983 0.0 10171333
15:00+28ene445365 0.0 10141005
18:00+24ene367217 0.0 1015691
21:00+21ese258720 0.0 1017183
17 august, wed
wed1700:00+20se129462 0.0 1017101
03:00+19ssw229620 0.0 101655
06:00+18ssw239761 0.0 101695
09:00+23ssw3572100 0.0 1018673
12:00+31se143914 0.0 10161711
15:00+27ene565923 0.0 1014725
18:00+24ene59775 0.0 1015595
21:00+22ese378514 0.0 1016312
18 august, thu
thu1800:00+20sse239612 0.0 101691
03:00+19ssw229856 0.0 101566
06:00+20ssw229488 0.0 1016103
09:00+26se246648 0.1 1017959
12:00+26e446732 0.8 1016935
15:00+28ene435741 1.3 10141325
18:00+24ne477717 0.0 1014771
21:00+22ne368176 0.0 1016285